Weather History for Joplin, MO

Change the Weather History Date:

Tuesday, November 15, 2011

  Actual Average Record
Temperature  
Mean Temperature 58 °F 49 °F  
Max Temperature 68 °F 59 °F 77 °F (1950)
Min Temperature 47 °F 38 °F 17 °F (1982)
Degree Days  
Heating Degree Days 7 16  
Month to date heating degree days 150 203  
Since 1 July heating degree days 416 455  
Cooling Degree Days 0 0  
Month to date cooling degree days 1 5  
Year to date cooling degree days 2190 1696  
Growing Degree Days 8 (Base 50)    
Moisture  
Dew Point 50 °F    
Average Humidity 77    
Maximum Humidity 100    
Minimum Humidity 53    
Precipitation  
Precipitation 0.00 in 0.13 in 2.78 in (1968)
Month to date precipitation 3.61 1.98  
Year to date precipitation 34.13 41.93  
Snow  
Snow 0.00 in - - ()
Month to date snowfall 0.0  
Snow Depth 0.00 in    
Sea Level Pressure  
Sea Level Pressure 29.78 in    
Wind  
Wind Speed 6 mph (NE)    
Max Wind Speed 15 mph    
Max Gust Speed 23 mph    
Visibility 9 miles    
Events      
T = Trace of Precipitation, MM = Missing Value Source: NWS Daily Summary

Daily Weather History Graph

Daily Weather History Graph

Search for Another Location

Airport:

Trip Planner

Search our weather history database for the weather conditions in past years. The results will help you decide how hot, cold, wet, or windy it might be!

Date:

Astronomy

Nov. 15, 2011 Rise Set
Actual Time 6:56 AM CST 5:08 PM CST
Civil Twilight 6:28 AM CST 5:35 PM CST
Nautical Twilight 5:57 AM CST 6:07 PM CST
Astronomical Twilight 5:26 AM CST 6:38 PM CST
Moon 9:18 PM CST (11/15) 10:55 AM CST (11/15)
Length of Visible Light 11h 06m
Length of Day
10h 11m
Waning Gibbous, 79% of the Moon is Illuminated
Nov 15
Waning Gibbous
Nov 18
Last Quarter
Nov 25
New
Dec 2
First Quarter
Dec 10
Full

Hourly Weather History & Observations

Time (CST) Temp. Dew Point Humidity Pressure Visibility Wind Dir Wind Speed Gust Speed Precip Events Conditions
12:53 AM 55.0 °F 48.9 °F 80% 29.75 in 10.0 mi South 8.1 mph - N/A   Scattered Clouds
1:53 AM 53.1 °F 48.9 °F 86% 29.74 in 10.0 mi South 10.4 mph - N/A   Clear
2:53 AM 55.4 °F 51.8 °F 88% 29.76 in 10.0 mi SSW 11.5 mph - N/A   Clear
3:53 AM 53.1 °F 51.1 °F 93% 29.73 in 10.0 mi SSW 4.6 mph - N/A   Clear
4:53 AM 52.0 °F 51.1 °F 97% 29.72 in 10.0 mi SE 4.6 mph - N/A   Clear
5:53 AM 51.1 °F 51.1 °F 100% 29.73 in 6.0 mi Calm Calm - N/A   Clear
6:53 AM 48.9 °F 48.9 °F 100% 29.74 in 6.0 mi SSE 4.6 mph - N/A   Clear
7:00 AM 48.2 °F 48.2 °F 100% 29.74 in 6.0 mi SSE 4.6 mph - N/A   Clear
7:53 AM 52.0 °F 52.0 °F 100% 29.76 in 6.0 mi SE 3.5 mph - N/A   Clear
8:53 AM 57.9 °F 55.0 °F 90% 29.78 in 10.0 mi South 3.5 mph - N/A   Clear
9:53 AM 62.1 °F 55.0 °F 78% 29.79 in 10.0 mi Calm Calm - N/A   Scattered Clouds
10:53 AM 64.9 °F 54.0 °F 68% 29.78 in 10.0 mi WSW 5.8 mph - N/A   Scattered Clouds
11:53 AM 64.9 °F 54.0 °F 68% 29.77 in 10.0 mi NW 4.6 mph - N/A   Scattered Clouds
12:53 PM 68.0 °F 54.0 °F 61% 29.74 in 10.0 mi WNW 4.6 mph - N/A   Mostly Cloudy
1:53 PM 66.0 °F 53.1 °F 63% 29.74 in 10.0 mi North 5.8 mph - N/A   Overcast
2:53 PM 68.0 °F 50.0 °F 52% 29.73 in 10.0 mi NE 5.8 mph - N/A   Mostly Cloudy
3:53 PM 66.2 °F 51.8 °F 60% 29.76 in 10.0 mi North 9.2 mph - N/A   Overcast
4:53 PM 60.8 °F 53.6 °F 77% 29.78 in 10.0 mi North 5.8 mph - N/A   Mostly Cloudy
5:53 PM 57.9 °F 51.1 °F 78% 29.80 in 10.0 mi North 6.9 mph - N/A   Scattered Clouds
6:53 PM 57.9 °F 50.0 °F 75% 29.82 in 10.0 mi North 6.9 mph - N/A   Mostly Cloudy
7:53 PM 57.0 °F 50.0 °F 77% 29.83 in 10.0 mi NNE 5.8 mph - N/A   Mostly Cloudy
8:53 PM 55.0 °F 48.0 °F 77% 29.85 in 10.0 mi NE 5.8 mph - N/A   Mostly Cloudy
9:53 PM 52.0 °F 41.0 °F 66% 29.88 in 10.0 mi North 10.4 mph - N/A   Clear
10:53 PM 50.0 °F 36.0 °F 59% 29.89 in 10.0 mi NNE 12.7 mph 20.7 mph N/A   Clear
11:53 PM 48.9 °F 33.1 °F 54% 29.91 in 10.0 mi NNE 9.2 mph - N/A   Clear